Home   Weather   Nanjing   Past weeks

Flag for China Past Weather in Nanjing, Jiangsu, China — Yesterday and Last 2 Weeks

Now
66 °F

Light rain. Fog.


Feels Like: 66 °F
Forecast: 68 / 77 °F
Wind: 1 mph from Northwest

Location: Nanjing

Current Time: Oct 1, 2016 at 6:12:06 AM

Latest Report: Oct 1, 2016 at 5:00 AM


Visibility: 1 mi

Pressure: 29.92 "Hg

Humidity: 100%

Dew Point: 66 °F

Location of NanjingLocation

Past Weather in Nanjing — Graph

°F

Nanjing Temperature Yesterday

Maximum temperature yesterday: 66 °F (at 11:00 AM)
Minimum temperature yesterday: 63 °F (at 5:00 AM)
Average temperature yesterday: 65 °F

High & Low Weather Summary for the Past Weeks

 TemperatureHumidityPressure
High88 °F (Sep 26, 3:00 PM)100% (Sep 16, 12:00 PM)30.15 "Hg (Sep 16, 12:00 PM)
Low61 °F (Sep 20, 2:00 AM)42% (Sep 20, 2:00 PM)29.65 "Hg (Sep 16, 12:00 PM)
Average73 °F82%29.93 "Hg
* Reported Sep 16 5:00 AM — Oct 1 5:00 AM, Nanjing, Weather by CustomWeather, © 2016

Note: Actual official high and low records may vary slightly from our data, if they occured in-between our weather recording intervals... More about our weather records

Advertising

Nanjing Weather History for the Previous 24 Hours

Scroll right to see more
 ConditionsComfort  
Time TempWeatherWind HumidityBarometerVisibility
5:00 AM
Sat, Oct 1
66 °FLight rain. Fog.1 mph100%29.92 "Hg1 mi
4:00 AM66 °FLight rain. Fog.1 mph100%29.92 "Hg1 mi
3:00 AM66 °FLight rain. Fog.1 mph100%29.92 "Hg1 mi
2:00 AM66 °FLight rain. Fog.3 mph100%29.92 "Hg1 mi
1:00 AM66 °FLight rain. Fog.1 mph100%29.95 "Hg1 mi
12:00 AM66 °FLight rain. Fog.1 mph100%29.95 "Hg1 mi
11:00 PM
Fri, Sep 30
66 °FFog.3 mph100%29.95 "Hg2 mi
10:00 PM66 °FFog.3 mph100%29.95 "Hg2 mi
9:00 PM66 °FDrizzle. Fog.1 mph100%29.95 "Hg1 mi
8:00 PM66 °FFog.3 mph100%29.92 "Hg1 mi
7:00 PM66 °FDrizzle. Fog.3 mph100%29.92 "Hg1 mi
6:00 PM66 °FDrizzle. Fog.3 mph100%29.89 "Hg1 mi
5:00 PM66 °FMild.6 mph100%29.89 "Hg1 mi
4:00 PM66 °FDrizzle. Fog.3 mph100%29.89 "Hg1 mi
3:00 PM66 °FLight rain. Fog.6 mph100%29.86 "Hg1 mi
2:00 PM66 °FLight rain. Fog.8 mph100%29.89 "Hg1 mi
1:00 PM66 °FFog.6 mph100%29.89 "Hg3 mi
12:00 PM66 °FLight rain. Fog.6 mph100%29.89 "Hg3 mi
11:00 AM66 °FRain. Mostly cloudy.3 mph100%29.92 "Hg4 mi
10:00 AM64 °FLight rain. Mostly cloudy.3 mph100%29.92 "Hg6 mi
9:00 AM64 °FLight rain. Mostly cloudy.6 mph100%29.92 "Hg4 mi
8:00 AM64 °FRain. Fog.6 mph100%29.92 "Hg3 mi
7:00 AM63 °FRain. Fog.3 mph100%29.89 "Hg3 mi
6:00 AM63 °FLight rain. Fog.6 mph100%29.89 "Hg2 mi
Weather by CustomWeather, © 2016

See weather overviewHow to use our weather pages